This demonstration page uses our WeatherBlox Daily Observations layout. Learn more.

Left ArrowRight Arrow

39.29038, -76.61219

Hourly Observations for January 28, 2015

Temp ( °F °C ) Dew Point ( °F °C ) Humidity (%) Winds ( mph kmh ) Pressure ( in mb ) Visibility ( mi km ) Precip ( " mm )
12:54 am 00:54 undefined 27 -2.8 7 -13.9 43 43 undefined N/A 30.06 1018 N/A 0.00 0.00
1:54 am 01:54 undefined 26 -3.3 6 -14.4 42 42 undefined N/A 30.01 1016 N/A 0.00 0.00
2:54 am 02:54 undefined 24 -4.4 7 -13.9 48 48 undefined N/A 30.04 1017 N/A 0.00 0.00
3:54 am 03:54 undefined 24 -4.4 5 -15 44 44 undefined N/A 30.06 1018 N/A 0.00 0.00
4:54 am 04:54 undefined 22 -5.6 6 -14.4 50 50 undefined N/A 30.09 1019 N/A 0.00 0.00
5:54 am 05:54 undefined 22 -5.6 5 -15 48 48 undefined N/A 30.10 1019 N/A 0.00 0.00
6:54 am 06:54 undefined 22 -5.6 4 -15.6 46 46 undefined N/A 30.14 1021 N/A 0.00 0.00
7:54 am 07:54 undefined 22 -5.6 4 -15.6 46 46 undefined N/A 30.17 1022 N/A 0.00 0.00
8:54 am 08:54 undefined 24 -4.4 2 -16.7 38 38 undefined N/A 30.19 1022 N/A 0.00 0.00
9:54 am 09:54 undefined 27 -2.8 1 -17.2 32 32 undefined N/A 30.20 1023 N/A 0.00 0.00
10:54 am 10:54 undefined 28 -2.2 0 -17.8 29 29 undefined N/A 30.20 1023 N/A 0.00 0.00
11:54 am 11:54 undefined 31 -0.6 1 -17.2 28 28 undefined N/A 30.19 1022 N/A 0.00 0.00
12:54 pm 12:54 undefined 34 1.1 2 -16.7 25 25 undefined N/A 30.18 1022 N/A 0.00 0.00
1:54 pm 13:54 undefined 35 1.7 1 -17.2 23 23 undefined N/A 30.18 1022 N/A 0.00 0.00
2:54 pm 14:54 undefined 35 1.7 1 -17.2 23 23 undefined N/A 30.20 1023 N/A 0.00 0.00
3:54 pm 15:54 undefined 35 1.7 1 -17.2 23 23 undefined N/A 30.22 1023 N/A 0.00 0.00
4:54 pm 16:54 undefined 34 1.1 3 -16.1 27 27 undefined N/A 30.24 1024 N/A 0.00 0.00
5:54 pm 17:54 undefined 33 0.6 3 -16.1 28 28 undefined N/A 30.26 1025 N/A 0.00 0.00
6:54 pm 18:54 undefined 32 0 5 -15 32 32 undefined N/A 30.28 1025 N/A 0.00 0.00
7:54 pm 19:54 undefined 31 -0.6 5 -15 33 33 undefined N/A 30.30 1026 N/A 0.00 0.00
8:54 pm 20:54 undefined 30 -1.1 4 -15.6 33 33 undefined N/A 30.31 1026 N/A 0.00 0.00
9:54 pm 21:54 undefined 30 -1.1 4 -15.6 33 33 undefined N/A 30.31 1027 N/A 0.00 0.00
10:54 pm 22:54 undefined 29 -1.7 5 -15 36 36 undefined N/A 30.32 1027 N/A 0.00 0.00
11:54 pm 23:54 undefined 28 -2.2 5 -15 37 37 undefined N/A 30.33 1027 N/A 0.00 0.00

Powered by AerisWeather